Location: Bezawada
(16.5136°N, 80.6297°E)
Time: 18:34:59
(UTC+00:00)

Daily predictions for brighter satellites

Satellite Brightness Start Highest point End
(mag) Time Altitude Azimuth Time Altitude Azimuth Time Altitude Azimuth
Cosmos 1464 Rocket 4.0 12:20:06 10° S 12:26:23 69° E 12:32:37 10° N
Tiangong -1.6 12:31:43 10° WNW 12:34:51 61° SW 12:37:58 10° SE
SOZ 4.5 12:32:41 10° SSW 12:35:27 58° ESE 12:37:51 10° NNE
Cosmos 2369 Rocket 2.8 12:33:35 10° SSE 12:38:36 35° ESE 12:43:38 10° NE
Cosmos 2297 4.3 12:34:29 10° SSE 12:39:39 36° ESE 12:44:47 10° NE
MOS 1 Rocket 3.3 12:35:41 10° SSE 12:39:42 44° ENE 12:43:48 10° N
Cosmos 2034 Rocket 4.1 12:34:15 10° SSE 12:40:14 55° E 12:46:16 10° NNE
ARIANE 5 R/B 2.5 12:35:50 10° SSE 12:40:48 85° WSW 12:45:46 10° NNW
Cosmos 2082 Rocket 3.4 12:38:13 10° NNE 12:41:58 18° ENE 12:45:42 10° ESE
Helios 1A Rocket 2.4 12:39:45 10° N 12:43:08 87° WNW 12:46:31 10° SSW
Delta 2 Rocket 3.1 12:39:12 10° NW 12:43:11 70° NNE 12:47:08 10° ESE
Cosmos 1455 Rocket 3.9 12:43:07 10° SSE 12:46:48 28° E 12:50:27 10° NNE
COSMO-SKYMED 1 2.4 12:43:09 10° N 12:47:15 88° WNW 12:51:22 10° SSW
AQUARIUS 4.0 12:43:13 10° SSE 12:47:36 84° E 12:52:00 10° N
NATO 3D Rocket 4.3 12:42:57 10° WSW 12:49:01 76° SSE 12:56:13 16° ENE
Centaur D-1AR AC-36 4.5 12:46:53 10° WNW 12:53:44 71° N 22:45:02 10° SE
Cosmos 1656 Rocket 4.1 12:49:17 10° SSW 12:54:40 62° WNW 13:00:09 10° N
CZ-2D R/B 3.8 12:51:01 10° SE 12:54:46 39° ENE 12:58:36 10° N
Cosmos 2058 2.7 12:52:33 10° N 12:56:30 67° E 13:00:26 10° SSE
PSLV R/B 4.2 12:56:16 10° SE 12:59:47 29° ENE 13:03:17 10° NNE
BREEZE-M DEB (TANK) 4.1 12:47:46 10° SSW 13:00:47 67° SE 13:03:31 22° NE
IRS-P3 4.3 12:57:00 10° S 13:02:19 78° WSW 13:07:38 10° NNW
ATLAS 5 CENTAUR R/B 2.5 12:59:05 10° NNW 13:04:38 77° WSW 13:11:16 10° SSE
Okean 1 Rocket 3.9 13:03:04 10° SSW 13:07:22 52° W 13:11:39 10° N
Cosmos 968 Rocket 3.7 13:08:59 10° SSW 13:14:02 70° WNW 13:19:10 10° N
SPOT 1/Viking Rocket 3.4 13:10:28 10° SSE 13:15:36 82° ENE 13:20:46 10° N
Cosmos 2026 Rocket 4.4 13:11:47 10° NNE 13:17:20 36° E 13:22:58 10° SSE
CENTAUR R/B 2.9 13:16:06 10° SSE 13:19:25 25° ESE 13:19:25 25° ESE
Cosmos 1862 3.3 13:18:36 10° N 13:22:13 70° W 13:25:50 10° S
Cosmos 2228 4.0 13:19:13 10° SSE 13:21:41 28° SE 13:21:41 28° SE
Cosmos 292 Rocket 4.4 13:20:34 10° SSE 13:24:33 35° ESE 13:24:33 35° ESE
YAOGAN 1 2.3 13:20:47 10° SSE 13:25:01 77° ENE 13:29:15 10° N
FUSE 4.4 13:20:50 10° WNW 13:25:53 43° NNE 13:27:03 37° NE
Spot 4 Rocket 3.9 13:21:54 10° SSE 13:26:59 85° ENE 13:32:04 10° N
Cosmos 1741 Rocket 4.4 13:29:01 10° SSW 13:34:09 62° WNW 13:38:42 14° N
Intelsat 5-1 Rocket 3.1 13:33:28 10° W 13:37:27 56° N 13:39:53 38° NE
Centaur AC-119 4.1 13:33:04 10° NW 13:38:46 42° NNE 13:40:16 38° NE
Resurs 1-3 3.7 13:34:43 10° S 13:38:59 73° WSW 13:43:16 10° NNW
Nadezhda 4 Rocket 4.4 13:33:24 10° NNW 13:39:31 63° W 13:45:34 10° S
Meteor 2-3 Rocket 3.6 13:34:18 10° N 13:39:50 60° E 13:45:19 10° SSE
Cosmos 1315 Rocket 4.4 13:36:25 10° S 13:37:51 22° SSE 13:37:51 22° SSE
GPS 2-15 Rocket1 3.3 13:39:16 10° WNW 13:43:47 56° N 13:43:47 56° N
H-2A R/B 3.4 13:44:57 10° NW 13:45:24 14° NW 13:45:24 14° NW
Cosmos 1627 Rocket 4.3 13:43:25 10° N 13:49:34 73° E 13:55:47 10° S
ATLAS 5 CENTAUR R/B 3.2 13:49:38 10° S 14:11:14 - NNE 13:52:22 45° SE
VEP-3 2.6 13:48:24 10° WNW 13:54:16 83° NNE 13:55:41 56° E
NOAA 6 4.1 13:49:55 10° S 13:55:03 78° WSW 14:00:11 10° NNW
Cosmos 489 Rocket 4.4 13:54:27 10° NNW 14:00:40 84° WSW 14:06:51 10° S
USA 215 3.1 14:08:55 73° SE 14:09:37 86° NE 14:16:10 10° NW
Cosmos 2082 Rocket 3.6 14:20:53 10° NW 14:25:54 34° WSW 14:30:56 10° SSW
Atlas Centaur 2 4.3 21:31:18 32° ESE 21:31:18 32° ESE 21:36:19 10° E
CZ-3 R/B 3.5 22:33:42 42° WNW 22:39:58 55° NNW 22:48:17 10° ENE
BREEZE-M DEB (TANK) 4.4 22:33:47 10° SSW 22:41:20 32° E 22:43:01 10° ENE
ATLAS 3B R/B 4.4 22:47:11 20° N 22:47:11 20° N 22:49:36 10° N
Cosmos 1782 Rocket 3.8 22:52:12 65° E 22:52:12 65° E 22:56:22 10° SSE
Cosmos 1300 Rocket 3.9 22:55:00 55° SSE 22:55:00 55° SSE 22:58:23 10° S
Cosmos 1818 3.6 22:50:16 10° SSW 22:55:38 78° ESE 23:01:02 10° NNE
Cosmos 1378 Rocket 4.4 22:53:41 10° SSE 22:57:47 48° E 23:01:53 10° NNE
Cosmos 1452 Rocket 3.6 22:53:36 10° S 22:58:48 74° ESE 23:03:59 10° NNE
Hubble Space Telescope 2.4 23:02:42 22° NNE 23:02:42 22° NNE 23:04:25 10° NE
Cosmos 2346 Rocket 4.3 22:57:28 10° S 23:03:35 70° W 23:09:39 10° N
Cosmos 1331 Rocket 3.8 22:58:58 10° SSW 23:04:11 70° WNW 23:09:25 10° N
Cosmos 1943 Rocket 2.9 23:06:55 34° SW 23:06:55 34° SW 23:10:49 10° S
Cosmos 2251 Rocket 3.6 23:03:16 26° N 23:06:21 77° ENE 23:11:39 10° SSE
UNK 3.9 23:02:50 10° SSE 23:07:19 68° ENE 23:10:30 19° N
Cosmos 1447 Rocket 4.4 23:04:08 10° SSW 23:10:15 64° W 23:16:28 10° N
Cosmos 1943 3.0 23:09:09 10° SSW 23:14:42 67° WNW 23:20:16 10° N
CZ-4 R/B 4.3 23:10:27 10° NNE 23:15:04 58° ESE 23:19:36 10° S
Atlas Centaur 2 2.8 23:13:20 27° WSW 23:18:14 80° NNW 23:25:31 10° ENE
Cosmos 2233 Rocket 3.8 23:13:03 10° N 23:19:15 74° W 23:25:23 10° S
GOES 2 Rocket 4.0 23:19:36 30° NNW 23:19:36 30° NNW 23:23:11 10° NE
SL-16 R/B 3.0 23:14:00 10° SSW 23:19:40 38° WSW 23:21:18 33° WNW
Cosmos 2278 Rocket 3.1 23:20:49 29° WSW 23:20:49 29° WSW 23:25:12 10° SSW
Cosmos 1725 Rocket 4.3 23:19:16 29° NW 23:21:46 41° W 23:27:34 10° SSW
Cosmos 1603 4.4 23:16:51 10° S 23:22:27 57° ESE 23:28:03 10° NNE
NOAA 12 4.3 23:21:27 10° NNE 23:26:45 75° ESE 23:32:00 10° S
Cosmos 2061 Rocket 3.9 23:21:45 10° N 23:27:54 69° W 23:34:06 10° S
Iridium 4 Rocket 3.6 23:28:26 35° W 23:28:26 35° W 23:32:23 10° SSW
SEDSat Delta rocket 3.1 23:27:30 41° WNW 23:28:24 48° NNW 23:32:19 10° NE
Cosmos 2369 Rocket 4.3 23:24:56 10° NNE 23:29:32 25° ENE 23:34:05 10° ESE
SJ-11-01 4.3 23:26:39 10° N 23:31:13 55° WNW 23:35:47 10° SSW
Cosmos 1190 Rocket 3.9 23:29:10 16° NNW 23:33:20 64° WSW 23:38:26 10° S
Cosmos 1869 2.8 23:30:35 15° N 23:33:25 85° W 23:36:57 10° S
USA 308 3.5 23:33:14 10° SSW 23:36:13 31° SE 23:38:14 10° ENE
Cosmos 676 Rocket 4.2 23:31:19 10° N 23:36:28 71° ENE 23:41:34 10° SSE
Ariane H10-3 4.2 23:31:10 11° WSW 23:40:09 24° SSW 23:43:52 10° SSE
SJ 16-02 1.2 23:38:53 12° NNW 23:42:42 65° W 23:46:54 10° S
Cosmos 1656 Rocket 3.8 23:37:27 10° NNW 23:43:06 81° ENE 23:48:42 10° SSE
Cosmos 1954 Rocket 3.9 23:40:29 10° NNW 23:45:32 61° WSW 23:50:35 10° S
Cosmos 1025 Rocket 2.9 23:47:53 10° SSW 23:52:10 66° W 23:56:29 10° N
Intelsat 5-2 Rocket 3.7 23:51:26 16° WNW 23:55:44 40° N 23:58:36 10° ENE
